CZ-6A DEB, 54545

Orbit data source: Space-Track

CZ-6A DEB, 54545 is space debris in SSO originally from a launch on Fri, 11 Nov 2022 UTC launched from the Taiyaun Space Center, China (TSC). Debris objects in space refer to the collection of defunct objects orbiting the Earth. Examples of debris include non-operational satellites, rocket bodies, and fragments generated from explosions, collisions, or faulty payload assembly.

Loading next visibility...
Identifier
54545, 2022-151KV
Orbit
SSO
Country
Flag of CNCN / PRC
Related business
Manufacturer
SAST
Mission
Spacecraft
Bus & Motor
Unknown
Mass
Unknown
Launch date (UTC)
2022-11-11 (4 years ago)
Launch vehicle
Unknown
Launch site
Taiyaun Space Center, China (TSC)
Object type
Payload
Rocket body
Debris
Shape & HBR
Unknown shape, 0.1 m
Radar Cross Section
Medium (>0.1 m² and <1 m²)

Expand to show TLE details & history
Last TLE update: 2 days ago

TLE from 2 days ago
0 CZ-6A DEB
1 54545U 22151KV  26170.97802255  .00000443  00000-0  26051-3 0  9996
2 54545  98.8325 173.3344 0053170 272.3618  87.1467 14.12456676185302
Epoch: 2026-06-19T23:28Z
TLE epoch observation values (Epoch: 2026-06-19T23:28:21.148Z)
Latitude
-0.00001°
Longitude
-86.95297°
Altitude
852.168 km
Speed
7.427 km/s
True Right ascension
11h 33m 20s
True Declination
0° 00' 00"
Sunlit
Object was in daylight at epoch
Visualization orbit readout
Latitude
Unknown
Longitude
Unknown
Altitude
Unknown
Speed
Unknown
Apparent Right ascension
Unknown
Apparent Declination
Unknown
Sunlit
N/A
Visualization observer readout
Local Sidereal Time
21:35:52
Azimuth
Unknown
Elevation
Unknown
Doppler factor
Unknown
Orbital elements
Apogee altitude
886.574 km
Perigee altitude
809.729 km
Semi-major axis
7,226.289 km
Eccentricity
0.00532
Inclination
98.8325°
RAAN
173.3344°
Arg. of periapsis
272.3618°
True anomaly
87.75542°
Mean anomaly
87.1467°
Eccentric anomaly
87.45104°
Mean motion
3.53322 °/min
Orbital period
101.89 mins
BSTAR
0.00026051
Loading maneuver chart data...
Computing Atmospheric mass density...
Loading historical data...
Loading historical data...
Loading historical data...
Loading historical data...
Loading historical data...
Loading historical data...
Loading historical data...

Documentation

Showing up to 5 results
|